Location: T�bingen+AIT
(48.5342°N, 9.0700°E)
Time: 20:28:51
(UTC+02:00)

Cosmos 2278 - Pass Details

Date: 14 September 2017
Orbit: 842 x 851 km, 71.1° (Epoch: 19 September)

Event Time Altitude Azimuth Distance (km) Brightness Sun altitude
Rises 22:50:44 0° 334° (NNW) 3,410 7.9 -29.2°
Reaches altitude 10° 22:53:18 10° 341° (NNW) 2,472 6.9 -29.4°
Enters shadow 22:57:59 44° 31° (NNE) 1,160 4.4 -30.0°
